Погода в Риомаджоре

Италия     44°05′45″N   9°44′36″E
темп.,
°C
ветер,
м/с
пор.,
м/с
влажн.,
%
обл.,
%
осадки,
мм/ч
давл.,
гПа
погр.,
м
23 апреля, пт
пт2323:00+15ссв33690 0.0 101876
02:00+14ссв44700 0.0 1019143
05:00+13св44671 0.0 1018158
08:00+13св44670 0.0 1020188
11:00+14ю11600 0.0 102196
14:00+16з33630 0.0 1020141
17:00+16з226611 0.0 101957
20:00+16ссз22640 0.0 102017
24 апреля, сб
сб2423:00+15ссв55730 0.0 102195
02:00+14св55720 0.0 1021141
05:00+14св55680 0.0 1021154
08:00+14св44600 0.0 1022164
11:00+15з11545 0.0 1022104
14:00+16з33655 0.0 1021152
17:00+16зсз23695 0.0 1019174
20:00+16зсз33725 0.0 101950
25 апреля, вс
вс2523:00+16с33655 0.0 101940
02:00+15с226890 0.0 101970
05:00+15ссв1166100 0.0 101859
08:00+15всв226414 0.0 1018117
11:00+15ююв226694 0.0 1019109
14:00+16зсз126256 0.0 1019203
17:00+17з1258100 0.0 1017244
20:00+16ссз2274100 0.0 101735
26 апреля, пн
пн2623:00+16ююз1174100 0.0 101712
02:00+15вюв2370100 0.0 101745
05:00+15юв347267 0.0 1015139
08:00+15в3469100 0.1 1014246
11:00+15вюв3463100 0.0 1015230
14:00+16юв5871100 0.0 1013367
17:00+16ююв71373100 0.1 1010424
20:00+16вюв5974100 0.3 1009342
27 апреля, вт
вт2723:00+15вюв477699 0.1 1009311
02:00+14в4676100 0.8 1007682
05:00+14в4778100 0.5 1004524
08:00+14ссв2282100 1.0 1004270
11:00+14в3483100 0.9 1003370
14:00+14вюв3585100 4.4 1002539
17:00+15ю4789100 1.4 1002525
20:00+15ю121492100 11.5 1001924